sat.trackr.live / text

‹ back to catalog

STARLINK-37571

NORAD 69043 · 2026-101U

PAYLOAD ACTIVE UNKNOWN

§ Identity

Operator
Country
US
Launch date
2026-05-06
Launch site
AFWTR
Launch vehicle
Mass (kg)
RCS (m²)

Purposes: comms

External: N2YO · Heavens-Above · Gunter

§ Orbital elements

Epoch: 2026-09-19T00:48:18.964512Z

Period
93.91 min
Inclination
97.2841°
Eccentricity
0.0001792
Mean motion
15.33452395 rev/d
Perigee alt
464.3 km
Apogee alt
466.7 km
Semi-major
6,843.7 km
B*
3.7185e-4
RAAN
115.5318°
Arg perigee
89.3747°
Mean anomaly
270.7701°
Rev number
2,095

§ Raw data

STARLINK-375711 69043U 26101U   26262.03355283  .00011952  00000+0  37185-3 0  99932 69043  97.2841 115.5318 0001792  89.3747 270.7701 15.33452395 20956

JSON: /api/v1/satellites/69043 · /tle

For live sub-satellite position, see the globe view (requires WebGL).

§ Visibility from observer

Set your observer location to see the next 7 days of passes ≥ 10°. The values pass through the URL so the page stays shareable.

No JS? Fill the form by hand. The geolocation button needs JavaScript.